This is the latest recevied weather packets stored in our database for station/object DG4DAA-13. If no packets are shown the sender has not sent any weather packets the latest 10 day(s).
| Time | Temp. | Humidity | Pressure | Rain* | Wind** | Luminosity | Snow |
|---|---|---|---|---|---|---|---|
| 1777333122 | 8.89° C | 67% | 1024.1 hPa | 0 mm | - | - | - |
| 1777331322 | 9.44° C | 66% | 1023.9 hPa | 0 mm | - | - | - |
| 1777329522 | 9.44° C | 65% | 1023.7 hPa | 0 mm | - | - | - |
| 1777327722 | 9.44° C | 65% | 1023.9 hPa | 0 mm | - | - | - |
| 1777325938 | 10° C | 64% | 1023.6 hPa | 0 mm | - | - | - |
| 1777325922 | 10° C | 64% | 1023.6 hPa | 0 mm | - | - | - |
| 1777324122 | 10.56° C | 63% | 1023.5 hPa | 0 mm | - | - | - |
| 1777322340 | 11.11° C | 62% | 1023.3 hPa | 0 mm | - | - | - |
| 1777322322 | 11.11° C | 62% | 1023.3 hPa | 0 mm | - | - | - |
| 1777320522 | 11.11° C | 62% | 1023.3 hPa | 0 mm | - | - | - |
| 1777318722 | 11.67° C | 59% | 1023.3 hPa | 0 mm | - | - | - |
| 1777316922 | 12.78° C | 57% | 1023.4 hPa | 0 mm | - | - | - |
| 1777315122 | 13.33° C | 53% | 1023.4 hPa | 0 mm | - | - | - |
| 1777313322 | 15° C | 49% | 1023.4 hPa | 0 mm | - | - | - |
| 1777311522 | 16.67° C | 46% | 1023.5 hPa | 0 mm | - | - | - |
| 1777309807 | 16.67° C | 45% | 1023.4 hPa | 0 mm | - | - | - |
| 1777309807 | 16.67° C | 45% | 1023.4 hPa | 0 mm | - | - | - |
| 1777309722 | 16.67° C | 45% | 1023.4 hPa | 0 mm | - | - | - |
| 1777307922 | 17.22° C | 44% | 1023.6 hPa | 0 mm | - | - | - |
| 1777306123 | 17.22° C | 41% | 1023.5 hPa | 0 mm | - | - | - |
| 1777304322 | 17.78° C | 41% | 1023.8 hPa | 0 mm | - | - | - |
| 1777302522 | 17.22° C | 43% | 1024.1 hPa | 0 mm | - | - | - |
| 1777300723 | 17.22° C | 40% | 1024.4 hPa | 0 mm | - | - | - |
| 1777298924 | 17.22° C | 35% | 1024.8 hPa | 0 mm | - | - | - |
| 1777297123 | 17.22° C | 41% | 1024.9 hPa | 0 mm | - | - | - |
* Rain latest hour (hover to see other rain measurements)
** Current wind speed in m/s (hover to see current wind gust speed)